This is the latest recevied weather packets stored in our database for station/object SQ9SMC-13. If no packets are shown the sender has not sent any weather packets the latest 10 day(s).
| Time | Temp. | Humidity | Pressure | Rain* | Wind** | Luminosity | Snow |
|---|---|---|---|---|---|---|---|
| 1777186204 | 7.22° C | 66% | 1020.2 hPa | 0 mm | - | 153 W/m² | - |
| 1777185905 | 6.67° C | 66% | 1020.3 hPa | 0 mm | - | 121 W/m² | - |
| 1777185603 | 6.67° C | 66% | 1020.3 hPa | 0 mm | - | 106 W/m² | - |
| 1777185305 | 6.67° C | 65% | 1020.2 hPa | 0 mm | - | 143 W/m² | - |
| 1777185003 | 6.67° C | 65% | 1020.1 hPa | 0 mm | - | 305 W/m² | - |
| 1777184704 | 7.22° C | 65% | 1020.2 hPa | 0 mm | - | 157 W/m² | - |
| 1777184403 | 6.67° C | 66% | 1019.9 hPa | 0 mm | - | 313 W/m² | - |
| 1777184103 | 6.11° C | 68% | 1020 hPa | 0 mm | - | 316 W/m² | - |
| 1777183806 | 6.11° C | 69% | 1019.6 hPa | 0 mm | - | 108 W/m² | - |
| 1777183502 | 6.67° C | 68% | 1019.9 hPa | 0 mm | - | 85 W/m² | - |
| 1777183203 | 6.67° C | 68% | 1019.7 hPa | 0 mm | - | 220 W/m² | - |
| 1777182904 | 6.67° C | 67% | 1019.5 hPa | 0 mm | - | 101 W/m² | - |
| 1777182603 | 6.67° C | 67% | 1019.5 hPa | 0 mm | - | 167 W/m² | - |
| 1777182305 | 6.11° C | 67% | 1019.5 hPa | 0 mm | - | 165 W/m² | - |
| 1777182004 | 6.11° C | 67% | 1019.3 hPa | 0 mm | - | 140 W/m² | - |
| 1777181703 | 6.11° C | 67% | 1019 hPa | 0 mm | - | 131 W/m² | - |
| 1777181402 | 6.11° C | 69% | 1019.1 hPa | 0 mm | - | 127 W/m² | - |
| 1777181102 | 5.56° C | 69% | 1019.1 hPa | 0 mm | - | 113 W/m² | - |
| 1777180805 | 5.56° C | 70% | 1018.9 hPa | 0 mm | - | 105 W/m² | - |
| 1777180504 | 5.56° C | 70% | 1018.7 hPa | 0 mm | - | 78 W/m² | - |
| 1777180203 | 5.56° C | 71% | 1018.9 hPa | 0 mm | - | 88 W/m² | - |
| 1777179906 | 5.56° C | 72% | 1018.7 hPa | 0 mm | - | 103 W/m² | - |
| 1777179604 | 5° C | 73% | 1018.8 hPa | 0 mm | - | 61 W/m² | - |
| 1777179304 | 5° C | 73% | 1018.7 hPa | 0 mm | - | 57 W/m² | - |
| 1777179004 | 5° C | 73% | 1018.6 hPa | 0 mm | - | 32 W/m² | - |
* Rain latest hour (hover to see other rain measurements)
** Current wind speed in m/s (hover to see current wind gust speed)